Hettinger, ND

8:50 PM MDT on August 18, 2017 (GMT -0600)
Hettinger Municipal

Weather History for KHEI - October, 2012

Change the Weather History Date:

Tuesday, October 16, 2012

  Actual Average Record
Temperature  
Mean Temperature 54 °F -  
Max Temperature 67 °F 56 °F 73 °F (2005)
Min Temperature 40 °F 30 °F 10 °F (2004)
Degree Days  
Heating Degree Days 11 22  
Month to date heating degree days 325 304  
Since 1 July heating degree days 606 675  
Cooling Degree Days 0 0  
Month to date cooling degree days 0 0  
Year to date cooling degree days 581 376  
Growing Degree Days 4 (Base 50)    
Moisture  
Dew Point 43 °F    
Average Humidity 71    
Maximum Humidity 93    
Minimum Humidity 34    
Precipitation  
Precipitation 0.02 in 0.04 in 0.16 in (1998)
Month to date precipitation 0.22 0.51  
Year to date precipitation 14.02 14.43  
Sea Level Pressure  
Sea Level Pressure 29.46 in    
Wind  
Wind Speed 8 mph (West)    
Max Wind Speed 21 mph    
Max Gust Speed 36 mph    
Visibility 10 miles    
Events Rain    
T = Trace of Precipitation, MM = Missing Value Source: NWS Daily Summary

Daily Weather History Graph

Daily Weather History Graph

Search for Another Location

Airport or City:

Trip Planner

Search our weather history database for the weather conditions in past years. The results will help you decide how hot, cold, wet, or windy it might be!

Date:

Astronomy

Oct. 16, 2012 Rise Set
Actual Time 7:09 AM MDT 6:01 PM MDT
Civil Twilight 6:39 AM MDT 6:31 PM MDT
Nautical Twilight 6:04 AM MDT 7:06 PM MDT
Astronomical Twilight 5:30 AM MDT 7:41 PM MDT
Moon 8:42 AM MDT (10/16) 6:39 PM MDT (10/16)
Length of Visible Light 11h 52m
Length of Day
10h 52m
New Moon, 2% of the Moon is Illuminated
Oct 16
New Moon
Oct 21
First Quarter
Oct 29
Full
Nov 6
Last Quarter
Nov 13
New

Hourly Weather History & Observations

Time (MDT) Temp. Windchill Dew Point Humidity Pressure Visibility Wind Dir Wind Speed Gust Speed Precip Events Conditions
12:53 AM 50.0 °F - 46.9 °F 89% 29.68 in 10.0 mi WNW 9.2 mph - N/A   Clear
1:53 AM 48.0 °F - 46.0 °F 93% 29.67 in 10.0 mi West 8.1 mph - N/A   Clear
2:53 AM 46.9 °F - 44.1 °F 90% 29.66 in 10.0 mi West 10.4 mph - N/A   Clear
4:53 AM 41.0 °F 37.1 °F 39.0 °F 93% 29.65 in 10.0 mi NW 5.8 mph - N/A   Clear
6:53 AM 43.0 °F - 39.0 °F 86% 29.62 in 10.0 mi Calm Calm - N/A   Clear
7:53 AM 46.0 °F - 41.0 °F 83% 29.60 in 10.0 mi Calm Calm - N/A   Clear
8:53 AM 48.9 °F - 43.0 °F 80% 29.56 in 10.0 mi Calm Calm - N/A   Clear
9:53 AM 55.9 °F - 44.1 °F 64% 29.54 in 10.0 mi WSW 10.4 mph - N/A   Clear
10:53 AM 61.0 °F - 43.0 °F 52% 29.48 in 10.0 mi SW 8.1 mph - N/A   Clear
11:53 AM 63.0 °F - 39.9 °F 43% 29.44 in 10.0 mi WSW 12.7 mph 17.3 mph N/A   Clear
12:53 PM 64.9 °F - 39.0 °F 39% 29.40 in 10.0 mi SSW 10.4 mph - N/A   Clear
1:53 PM 66.9 °F - 37.0 °F 33% 29.36 in 10.0 mi South 13.8 mph - N/A   Overcast
2:53 PM 63.0 °F - 44.1 °F 50% 29.34 in 10.0 mi SSW 9.2 mph - 0.00 in Rain Light Rain
3:53 PM 64.0 °F - 39.9 °F 41% 29.31 in 10.0 mi South 3.5 mph - 0.00 in   Overcast
4:53 PM 57.9 °F - 50.0 °F 75% 29.35 in 10.0 mi Calm Calm - 0.00 in Rain Light Rain
5:53 PM 55.9 °F - 46.0 °F 69% 29.33 in 10.0 mi Calm Calm - 0.00 in   Overcast
6:53 PM 53.1 °F - 46.9 °F 80% 29.34 in 10.0 mi WNW 6.9 mph - N/A   Mostly Cloudy
7:53 PM 52.0 °F - 46.9 °F 83% 29.37 in 10.0 mi WNW 8.1 mph - N/A   Mostly Cloudy
8:53 PM 51.1 °F - 46.9 °F 86% 29.36 in 10.0 mi WNW 10.4 mph - N/A   Mostly Cloudy
9:53 PM 52.0 °F - 48.0 °F 86% 29.38 in 8.0 mi WNW 19.6 mph 26.5 mph 0.01 in Rain Light Rain
10:53 PM 48.9 °F - 43.0 °F 80% 29.38 in 10.0 mi WNW 17.3 mph - 0.01 in   Scattered Clouds
11:53 PM 48.9 °F - 37.0 °F 64% 29.39 in 10.0 mi WNW 20.7 mph 26.5 mph N/A   Clear